                ,  0.937,  1.134,  1.331,  1.528,  1.725,  1.922,  2.119,  2.316,  2.513,  2.711,  2.908,  3.105,  3.302,  3.499,  3.696,  3.893,  4.090,  4.287,  4.484,  4.681,  4.878,  5.076,  5.273,  5.470,  5.667,  5.864,  6.061,  6.258,  6.455,  6.652,  6.849,  7.046,  7.243,  7.441,  7.638,  7.835,  8.032,  8.229,  8.426,  8.623,  8.820,  9.017,  9.214,  9.411,  9.608,  9.806
2000/05/27 00:00,  999.0,  999.0,  999.0,  999.0,  999.0,  999.0,  999.0,  999.0,  999.0,  999.0,  999.0,  999.0,  999.0,  999.0,  999.0,  999.0,  999.0,  999.0,  999.0,  999.0,  999.0,  999.0,  999.0,  999.0,  999.0,  999.0,  999.0,  999.0,  999.0,  999.0,  999.0,  999.0,  999.0,  999.0,  999.0,  999.0,  999.0,  999.0,  999.0,  999.0,  999.0,  999.0,  999.0,  999.0,  999.0,  999.0
2000/05/27 00:10,  999.0,  999.0,  999.0,  999.0,    5.0,    8.0,  999.0,   13.1,   15.1,   11.5,    7.1,  999.0,   10.7,   14.4,   15.0,   13.3,   14.3,  999.0,   15.7,   15.3,   16.2,   15.3,   11.7,  999.0,    2.7,    0.4,   -2.5,  999.0,  999.0,   -2.2,   -2.7,   -1.6,   -1.3,   -1.5,   -1.3,  999.0,   -2.9,   -3.0,   -2.1,   -1.5,   -2.8,   -1.5,   -0.9,   -0.8,   -1.1,   -1.4
2000/05/27 00:20,  999.0,  999.0,  999.0,  999.0,    6.7,  999.0,   12.0,   14.8,   15.7,   13.1,    9.5,  999.0,   10.2,   14.9,   17.6,   17.6,   15.3,   14.9,   15.1,   15.6,   17.8,   15.0,   10.9,  999.0,    1.9,   -0.8,   -2.2,   -2.4,   -2.7,   -2.6,  999.0,  999.0,   -1.4,  999.0,  999.0,  999.0,   -2.8,  999.0,   -1.6,   -2.0,   -2.3,   -0.6,   -0.5,   -0.5,   -0.9,   -0.7
2000/05/27 00:30,  999.0,    4.2,  999.0,    3.7,    6.7,   10.2,  999.0,   13.6,   15.3,   14.4,   11.6,    9.4,   10.8,   14.4,   18.6,   17.6,   15.4,   15.4,   15.9,   16.3,   18.0,   13.6,    8.5,    4.4,    1.2,   -0.7,  999.0,   -2.5,   -2.4,   -2.0,   -2.6,   -1.8,   -1.1,   -1.9,   -2.6,   -2.1,  999.0,   -2.2,   -0.3,  999.0,   -0.9,    0.3,    0.1,   -0.3,   -0.1,   -0.6
2000/05/27 00:40,  999.0,  999.0,  999.0,    4.6,    7.6,  999.0,  999.0,   14.0,   16.4,   15.3,   13.7,   11.6,   11.7,   14.8,  999.0,  999.0,   15.6,   16.1,   15.7,   16.7,   18.0,   12.7,    7.5,  999.0,   -0.2,   -1.2,   -2.4,   -2.5,   -2.2,   -1.8,   -2.3,  999.0,   -2.3,   -1.8,   -2.1,  999.0,  999.0,  999.0,   -0.3,    0.2,   -0.4,    1.0,    0.5,    0.1,    0.3,    0.8
2000/05/27 00:50,    2.9,  999.0,  999.0,    4.0,  999.0,    8.1,  999.0,   13.3,   14.7,   16.8,   15.1,   13.6,   12.8,   15.4,   18.1,  999.0,   17.1,   16.5,   16.7,   18.4,   17.3,   11.6,    5.2,  999.0,    0.4,   -1.1,  999.0,  999.0,   -1.5,   -1.4,   -2.0,   -2.1,   -2.4,  999.0,   -3.0,   -1.9,  999.0,  999.0,   -0.9,  999.0,  999.0,   -0.1,    0.3,    0.3,    0.3,    1.0
2000/05/27 01:00,  999.0,  999.0,  999.0,    4.0,  999.0,    9.4,   10.6,   11.9,   13.7,   15.4,   16.5,   13.8,   12.5,  999.0,  999.0,   18.6,   17.7,   17.3,   17.1,   19.0,   15.6,    9.5,    5.4,  999.0,   -0.3,  999.0,  999.0,  999.0,   -1.7,   -1.2,  999.0,  999.0,  999.0,   -2.5,  999.0,  999.0,   -2.4,   -2.3,   -2.0,   -1.1,   -1.1,   -0.8,   -0.6,   -0.8,   -0.2,    0.2
2000/05/27 01:10,  999.0,  999.0,  999.0,    3.5,    7.0,    7.6,   10.3,   12.4,   13.5,   15.0,   17.0,   16.2,   15.2,   15.4,  999.0,   17.9,   17.2,   17.3,   17.7,   17.7,   13.3,    7.4,  999.0,    1.2,    0.1,  999.0,   -2.1,   -1.8,   -1.8,   -1.2,   -1.4,   -2.0,  999.0,  999.0,  999.0,  999.0,  999.0,   -2.6,   -2.1,   -1.0,  999.0,   -0.7,   -0.9,   -1.1,   -0.4,    0.0
2000/05/27 01:20,  999.0,  999.0,  999.0,    3.8,  999.0,  999.0,    8.0,   11.9,   13.5,   13.8,   17.0,   16.5,   14.8,   15.1,   14.3,   17.2,   17.9,   17.3,   18.4,   16.0,   10.5,    5.5,    2.5,    1.5,    0.8,  999.0,  999.0,  999.0,  999.0,  999.0,   -1.2,   -1.6,  999.0,  999.0,  999.0,   -1.6,  999.0,   -2.5,   -2.1,   -1.0,  999.0,   -0.1,   -1.3,   -1.0,    0.1,   -0.7
2000/05/27 01:30,  999.0,    4.7,  999.0,    5.0,  999.0,    6.8,  999.0,    9.3,   11.7,   13.7,   16.3,   17.8,   17.9,   17.3,   16.0,   16.9,   16.9,   17.2,   16.6,   12.9,  999.0,  999.0,  999.0,    2.5,  999.0,  999.0,  999.0,   -1.5,  999.0,  999.0,  999.0,  999.0,  999.0,  999.0,  999.0,  999.0,   -1.9,   -2.0,   -1.1,  999.0,    0.4,   -0.3,   -0.8,   -0.7,   -0.4,   -1.3
2000/05/27 01:40,    4.7,    4.6,  999.0,    4.3,    7.0,  999.0,  999.0,    9.1,   11.4,   13.4,   15.3,   17.5,   18.0,   16.5,   17.9,  999.0,   17.3,   17.2,   15.0,   11.9,    8.5,  999.0,    3.4,  999.0,  999.0,  999.0,  999.0,  999.0,  999.0,  999.0,  999.0,   -1.6,  999.0,  999.0,  999.0,   -0.9,   -0.3,  999.0,  999.0,  999.0,    0.1,   -0.7,   -1.0,   -0.6,  999.0,  999.0
2000/05/27 01:50,  999.0,  999.0,  999.0,    5.7,  999.0,  999.0,    9.1,    8.4,   10.2,  999.0,   14.3,   16.6,   16.7,   16.9,   17.5,   17.0,   17.4,   16.9,   13.5,  999.0,  999.0,  999.0,  999.0,  999.0,  999.0,  999.0,   -2.1,  999.0,   -2.6,  999.0,  999.0,   -1.4,   -1.5,   -0.2,    0.2,    0.6,    1.3,    1.9,    2.0,    0.9,   -0.5,   -0.8,   -0.9,   -0.7,   -0.5,   -1.2
2000/05/27 02:00,  999.0,  999.0,    5.0,    5.8,  999.0,    7.4,    8.1,    9.1,   11.2,   12.0,   14.7,   16.5,   15.1,   16.5,   17.6,   17.2,  999.0,   16.6,   12.2,  999.0,  999.0,  999.0,    3.4,    1.4,   -0.3,   -1.5,   -2.4,   -2.5,  999.0,  999.0,   -1.8,   -1.1,   -0.5,    0.6,    1.0,    0.6,    1.2,    1.4,    1.4,  999.0,   -1.1,  999.0,   -1.4,   -1.4,   -0.4,   -1.1
2000/05/27 02:10,    4.6,    5.6,    5.5,    5.7,  999.0,    7.8,    7.4,    8.6,   11.4,   10.3,   13.4,   15.8,   15.2,   15.2,   16.5,   16.2,   16.2,   14.9,   11.8,  999.0,  999.0,  999.0,    3.7,  999.0,  999.0,   -2.0,   -2.3,  999.0,  999.0,  999.0,   -1.7,   -0.6,  999.0,  999.0,    1.3,  999.0,    1.0,  999.0,  999.0,  999.0,  999.0,  999.0,  999.0,  999.0,  999.0,  999.0
2000/05/27 02:20,  999.0,  999.0,  999.0,    7.3,    7.9,    7.5,    8.5,   10.1,   12.5,   11.5,   12.5,   14.8,   15.5,   14.9,   17.9,   16.8,   16.4,   14.3,   11.7,  999.0,  999.0,    4.7,  999.0,  999.0,  999.0,   -2.3,   -2.3,  999.0,  999.0,   -2.3,  999.0,  999.0,   -0.0,    1.5,    1.4,  999.0,  999.0,  999.0,  999.0,  999.0,  999.0,  999.0,  999.0,  999.0,  999.0,  999.0
2000/05/27 02:30,    4.6,    5.0,    5.4,    7.1,    7.5,    9.1,   12.2,   12.9,  999.0,  999.0,   10.7,   13.8,   16.0,   16.6,   15.7,   16.3,   15.9,   13.4,   10.4,  999.0,    6.1,    3.4,  999.0,    1.1,   -0.5,   -2.5,  999.0,  999.0,   -1.7,   -2.3,   -2.2,   -1.1,   -0.2,  999.0,  999.0,  999.0,  999.0,  999.0,  999.0,  999.0,  999.0,  999.0,  999.0,  999.0,  999.0,  999.0
2000/05/27 02:40,  999.0,  999.0,    5.4,    6.7,    7.2,    7.5,  999.0,   12.8,   12.2,  999.0,  999.0,  999.0,   14.4,   15.7,   16.8,   17.2,   15.9,   13.4,    9.8,  999.0,    5.5,  999.0,  999.0,    1.1,  999.0,   -2.3,   -1.7,  999.0,  999.0,   -1.9,  999.0,   -0.2,   -1.6,   -3.5,   -2.2,  999.0,  999.0,  999.0,  999.0,  999.0,  999.0,  999.0,  999.0,  999.0,  999.0,  999.0
2000/05/27 02:50,    6.2,    5.2,  999.0,    6.9,    7.8,    8.7,  999.0,   14.4,  999.0,  999.0,   10.7,  999.0,   15.8,   16.8,   16.2,   16.3,   15.3,   13.1,    9.5,    8.7,  999.0,  999.0,  999.0,   -0.0,  999.0,   -1.8,   -2.3,   -2.3,   -1.0,   -0.8,  999.0,   -1.6,   -2.1,   -4.9,   -6.0,   -6.4,   -5.7,  999.0,  999.0,  999.0,  999.0,  999.0,  999.0,  999.0,  999.0,  999.0
2000/05/27 03:00,    6.4,    6.1,    6.4,    7.6,  999.0,    9.4,   12.5,   13.1,   12.6,  999.0,   10.3,  999.0,   14.4,   17.2,   17.2,   16.9,   15.8,   11.5,    8.9,    8.4,    4.1,  999.0,  999.0,    0.2,   -1.4,   -1.2,  999.0,  999.0,  999.0,   -1.5,   -2.9,  999.0,   -5.5,   -6.3,   -6.1,   -5.4,   -5.1,  999.0,  999.0,  999.0,  999.0,  999.0,  999.0,  999.0,  999.0,  999.0
2000/05/27 03:10,  999.0,    6.4,    7.7,    8.3,  999.0,   12.1,   13.3,   14.4,   12.3,  999.0,   11.2,    9.8,   13.3,   17.1,   17.7,   16.3,   13.7,    8.8,    5.6,  999.0,  999.0,  999.0,    0.6,   -0.8,   -1.5,  999.0,   -1.8,   -2.0,  999.0,   -1.4,   -3.9,   -5.6,   -6.2,   -6.9,   -6.0,   -5.6,   -4.5,   -4.6,  999.0,   -3.6,   -2.9,   -2.1,   -0.9,   -1.3,   -1.2,   -1.1
2000/05/27 03:20,    7.2,  999.0,    8.3,  999.0,  999.0,   11.7,   13.9,  999.0,   13.0,  999.0,  999.0,    9.5,   12.1,   15.4,   17.5,   16.5,   14.3,   11.0,    8.0,  999.0,    2.8,    0.5,   -1.0,   -1.1,  999.0,   -1.3,  999.0,   -0.5,   -0.7,  999.0,  999.0,  999.0,   -6.3,   -7.4,   -7.2,   -6.4,  999.0,   -5.2,   -4.4,   -3.2,   -2.1,   -2.0,   -1.4,   -1.6,   -2.4,   -2.4
2000/05/27 03:30,  999.0,    5.3,    8.9,   11.8,   11.1,   11.9,  999.0,  999.0,  999.0,  999.0,  999.0,    9.0,   11.3,   14.7,   17.4,   15.1,   11.4,    8.6,  999.0,  999.0,   -0.1,  999.0,  999.0,  999.0,  999.0,   -0.6,  999.0,   -0.6,  999.0,  999.0,  999.0,  999.0,  999.0,  999.0,  999.0,   -6.0,  999.0,  999.0,   -4.2,   -2.6,  999.0,  999.0,  999.0,  999.0,  999.0,  999.0
2000/05/27 03:40,  999.0,    6.7,    8.0,    9.9,   10.8,  999.0,   13.2,   12.7,  999.0,  999.0,  999.0,  999.0,   10.5,   14.8,   16.6,   13.7,   10.4,    7.8,  999.0,    2.3,   -1.2,   -1.6,  999.0,  999.0,  999.0,  999.0,  999.0,  999.0,  999.0,  999.0,  999.0,  999.0,  999.0,  999.0,  999.0,  999.0,  999.0,  999.0,  999.0,  999.0,  999.0,  999.0,  999.0,  999.0,  999.0,  999.0
2000/05/27 03:50,  999.0,    8.4,    7.3,    7.9,    9.0,   12.6,   13.2,   12.7,   11.5,  999.0,  999.0,    8.6,   10.2,   14.6,   15.5,   11.6,    9.3,  999.0,    3.3,  999.0,  999.0,  999.0,  999.0,  999.0,  999.0,  999.0,  999.0,  999.0,   -3.4,  999.0,  999.0,  999.0,  999.0,  999.0,  999.0,  999.0,  999.0,  999.0,  999.0,  999.0,  999.0,  999.0,  999.0,  999.0,  999.0,  999.0
2000/05/27 04:00,    8.8,   10.3,    6.4,    6.8,    7.4,    8.9,   11.9,   13.0,   13.0,   13.5,   12.0,    9.1,   10.3,   13.8,   13.1,   10.5,    9.4,    6.0,    1.3,    0.1,   -0.1,  999.0,  999.0,  999.0,   -0.4,   -0.2,  999.0,  999.0,   -3.4,  999.0,   -3.7,   -4.0,   -3.8,  999.0,  999.0,  999.0,  999.0,  999.0,  999.0,  999.0,  999.0,  999.0,  999.0,  999.0,  999.0,  999.0
2000/05/27 04:10,    8.0,   10.3,    8.3,    7.1,    7.6,    9.4,   12.6,   13.9,   14.5,   14.6,   12.8,  999.0,  999.0,  999.0,   11.7,  999.0,    9.3,    5.1,    0.5,  999.0,  999.0,  999.0,  999.0,  999.0,  999.0,  999.0,  999.0,  999.0,  999.0,  999.0,   -4.3,   -4.2,   -4.1,  999.0,  999.0,  999.0,  999.0,  999.0,  999.0,  999.0,  999.0,  999.0,  999.0,  999.0,  999.0,  999.0
2000/05/27 04:20,    7.7,   11.3,  999.0,  999.0,    8.2,    9.9,   12.7,   13.7,   13.9,   14.5,   12.6,    9.0,    9.4,   12.1,   11.0,    9.3,    7.8,    2.8,   -0.1,  999.0,  999.0,  999.0,  999.0,  999.0,  999.0,  999.0,   -3.6,  999.0,   -4.3,   -4.6,   -4.8,  999.0,  999.0,  999.0,  999.0,  999.0,  999.0,  999.0,  999.0,  999.0,  999.0,  999.0,  999.0,  999.0,  999.0,  999.0
2000/05/27 04:30,  999.0,  999.0,    8.4,    7.0,    6.7,   11.1,  999.0,   14.3,   14.2,   14.7,   13.0,   10.9,   12.1,  999.0,  999.0,    8.3,    6.7,    2.1,  999.0,  999.0,  999.0,  999.0,  999.0,  999.0,  999.0,  999.0,  999.0,  999.0,  999.0,  999.0,  999.0,  999.0,  999.0,  999.0,  999.0,  999.0,  999.0,  999.0,  999.0,   -2.3,   -3.2,   -4.5,   -4.6,   -4.7,   -4.4,   -4.2
2000/05/27 04:40,  999.0,   11.1,  999.0,    6.3,    8.6,   11.7,   14.0,  999.0,  999.0,   13.8,   11.8,   10.5,   11.2,   11.5,   11.2,   10.1,    5.7,    1.2,  999.0,  999.0,  999.0,  999.0,  999.0,  999.0,  999.0,  999.0,  999.0,  999.0,  999.0,  999.0,  999.0,  999.0,  999.0,  999.0,  999.0,   -4.4,  999.0,   -3.4,   -3.2,   -2.8,   -3.5,   -4.8,   -4.1,   -2.1,   -2.1,   -2.0
2000/05/27 04:50,    8.7,   11.4,  999.0,    7.3,    8.7,   11.6,   14.6,   16.0,   15.1,   12.6,   12.0,   10.3,   10.4,   11.0,   11.7,  999.0,    5.7,  999.0,  999.0,  999.0,  999.0,  999.0,  999.0,  999.0,  999.0,  999.0,   -1.4,  999.0,  999.0,   -4.0,   -3.0,   -4.2,  999.0,  999.0,  999.0,   -3.0,  999.0,  999.0,  999.0,   -2.0,   -3.7,   -3.8,   -2.6,   -1.5,   -0.7,   -1.4
2000/05/27 05:00,    9.3,   11.9,   11.8,    8.1,    7.7,   11.5,   14.9,   15.6,   13.8,   10.6,   10.6,   10.3,   10.8,   12.0,   11.8,   11.4,  999.0,  999.0,  999.0,  999.0,  999.0,  999.0,   -1.9,  999.0,   -0.8,   -0.3,  999.0,  999.0,   -3.5,  999.0,   -2.4,   -2.8,   -2.7,   -3.6,   -3.5,   -1.9,   -0.7,   -1.6,   -3.2,   -3.7,   -3.0,   -1.9,   -1.8,   -1.4,   -1.5,   -2.4
2000/05/27 05:10,   10.1,   11.9,  999.0,    9.6,    7.5,   11.6,   14.1,   14.8,   13.4,   11.2,   10.0,    9.7,    9.7,   11.4,   11.2,    9.2,  999.0,  999.0,  999.0,  999.0,  999.0,   -0.7,   -0.3,   -0.1,    1.1,    0.5,  999.0,  999.0,   -2.8,   -2.8,   -2.8,   -2.5,   -1.7,   -2.1,   -2.1,   -1.7,   -0.5,   -1.5,   -3.1,   -2.1,   -1.2,   -1.3,   -0.7,   -2.1,   -2.4,  999.0
2000/05/27 05:20,   10.2,  999.0,   11.3,   10.4,    9.3,   12.2,   13.6,   13.8,  999.0,  999.0,  999.0,  999.0,  999.0,  999.0,  999.0,    9.5,    5.8,    3.7,  999.0,    3.3,    0.4,    1.2,   -0.1,    1.1,    0.8,    0.7,   -0.6,   -1.3,   -1.2,   -1.2,   -0.9,   -1.4,    0.1,    0.9,    0.2,    0.1,    0.7,   -0.1,   -1.8,   -1.4,   -0.4,   -0.6,    0.4,    0.2,    0.0,  999.0
2000/05/27 05:30,    9.3,   11.9,   12.1,   11.2,  999.0,   11.0,   14.2,   15.0,   11.9,  999.0,   10.6,    9.8,    9.4,  999.0,    6.9,  999.0,  999.0,    2.9,    1.1,  999.0,    1.2,    0.0,   -0.5,    1.2,    0.7,    0.5,   -0.0,   -0.5,   -0.9,   -0.6,   -0.7,   -0.1,    0.9,    1.4,    1.0,    0.4,    0.0,   -0.5,   -0.2,    0.6,    0.6,    0.5,    2.0,    0.8,  999.0,  999.0
2000/05/27 05:40,  999.0,  999.0,   12.7,   14.9,   16.2,   14.5,   13.8,   13.8,  999.0,   15.7,  999.0,  999.0,   16.1,   18.8,   17.5,   12.5,    5.9,    3.7,    0.8,    0.7,    0.6,    0.3,    0.4,    0.6,  999.0,   -1.2,   -1.6,   -1.4,   -0.4,  999.0,  999.0,   -0.5,    1.3,    0.9,    0.0,   -0.4,   -0.6,    0.6,    1.0,    1.3,    0.9,    1.0,    1.1,    0.2,    0.4,   -0.4
2000/05/27 05:50,    9.5,   12.7,   11.0,   11.9,   14.0,   12.0,   15.7,   17.1,   15.8,   14.8,   14.2,   12.3,   14.3,   13.5,   11.9,    9.6,    6.1,    3.1,    0.7,    2.0,  999.0,  999.0,    1.2,  999.0,  999.0,   -0.4,   -0.9,   -0.0,   -0.2,   -0.5,   -0.2,  999.0,    0.1,   -0.2,   -0.1,    0.7,    1.7,    2.0,    2.4,    1.1,    1.3,    2.2,    1.5,    0.6,    0.2,   -0.2
2000/05/27 06:00,   10.2,   10.5,   11.8,   12.9,   14.4,   17.4,   19.1,   17.8,   16.2,   14.2,   12.5,   11.4,   11.2,   12.5,   12.5,    8.8,    5.7,  999.0,    1.3,  999.0,    3.3,    2.3,    1.7,  999.0,    1.6,    0.1,  999.0,  999.0,  999.0,   -0.8,    0.4,  999.0,  999.0,   -0.1,    1.4,    2.3,    2.8,    2.3,  999.0,    1.5,    2.2,    2.2,    1.5,    0.7,    0.2,   -0.5
2000/05/27 06:10,  999.0,  999.0,  999.0,   14.1,   17.9,   19.0,   18.6,   15.4,   12.2,   11.0,   11.1,   10.1,   11.1,   12.3,   11.4,    8.4,    5.4,    2.1,  999.0,  999.0,    3.1,    2.5,    1.5,    1.6,    1.9,    0.8,  999.0,  999.0,  999.0,  999.0,  999.0,  999.0,  999.0,    2.1,  999.0,  999.0,    1.9,    2.4,    1.4,    1.4,    0.7,    0.7,    0.0,   -0.4,   -1.2,   -1.3
2000/05/27 06:20,   10.9,   11.5,   12.0,   15.3,   18.1,   18.3,   14.1,   12.3,   10.6,  999.0,    9.6,   10.1,   11.1,   11.4,   10.5,    5.7,    3.7,    2.4,    3.9,    3.7,    4.3,    3.7,  999.0,  999.0,    1.8,  999.0,  999.0,  999.0,  999.0,  999.0,  999.0,  999.0,  999.0,  999.0,    1.5,    2.0,    1.8,    1.6,    1.5,    0.6,   -0.2,   -0.6,   -1.0,   -1.4,   -0.9,   -1.0
2000/05/27 06:30,   10.8,   11.6,   12.3,   17.2,   17.6,   16.3,   14.5,  999.0,  999.0,    9.5,    9.4,    8.8,    8.7,    9.3,    8.2,    4.5,  999.0,  999.0,  999.0,  999.0,  999.0,  999.0,  999.0,  999.0,  999.0,  999.0,    0.3,   -0.3,    0.3,    1.2,    1.1,    0.3,    0.3,    0.0,    0.0,    0.6,    1.9,    1.7,    1.1,    0.2,   -0.8,   -1.6,   -0.7,    0.3,    1.4,    2.1
2000/05/27 06:40,   10.3,   11.2,   12.8,   15.6,   16.7,   16.6,   15.8,   14.1,   12.3,   10.6,    9.5,    8.6,    8.4,   10.2,   10.6,    6.9,  999.0,    4.3,  999.0,  999.0,  999.0,  999.0,    4.9,  999.0,  999.0,    1.8,    0.2,    0.1,    0.6,  999.0,   -0.1,   -0.1,    0.2,    0.3,    0.2,    0.2,    1.6,    2.2,    1.6,    1.1,    0.2,   -1.1,    0.1,    0.9,    1.7,    1.8
2000/05/27 06:50,    9.7,   10.8,   12.6,   15.7,   17.6,   16.6,   17.5,   14.3,   11.3,    9.0,    9.3,    9.6,   10.5,   11.8,   10.1,    7.5,    5.9,    5.7,    3.9,    2.7,  999.0,  999.0,  999.0,  999.0,  999.0,    1.8,    0.5,  999.0,    0.7,    0.1,    0.7,    0.7,    0.9,    1.0,    0.9,    1.0,    2.1,    3.7,    3.8,    2.8,    1.8,    0.4,    0.7,    1.7,    2.8,    2.7
2000/05/27 07:00,    9.7,   11.0,   13.0,   15.3,  999.0,  999.0,   15.9,   12.5,   10.5,    9.2,    9.5,    9.3,    9.7,   10.2,    9.5,    7.3,  999.0,    6.0,    4.6,    3.6,  999.0,  999.0,  999.0,    3.7,  999.0,    2.6,  999.0,    1.0,    0.8,    0.7,    2.3,    2.4,    1.9,    1.4,    1.7,    3.0,    4.6,    4.4,    2.7,    1.5,    0.6,    1.1,    2.8,    2.3,    2.1,    1.7
2000/05/27 07:10,   10.1,   10.9,   12.4,  999.0,   18.3,   16.9,   14.0,   12.2,    9.8,    8.6,    7.7,    8.0,    8.9,   10.5,    8.6,    7.0,  999.0,    5.8,    4.2,    3.2,    4.3,  999.0,  999.0,  999.0,    3.3,  999.0,    1.7,  999.0,  999.0,    2.5,    2.9,  999.0,    3.5,    3.7,    4.2,    4.5,    4.1,    3.2,    2.5,    2.1,    1.9,    2.5,    2.9,    1.5,    1.4,    1.1
2000/05/27 07:20,   11.2,   11.2,   13.9,   16.6,   17.5,   16.3,   13.4,   13.0,   12.3,   10.6,    8.4,    8.4,    9.3,   10.1,   10.2,    8.3,  999.0,    5.3,    3.5,  999.0,  999.0,  999.0,    4.6,  999.0,    4.0,    3.8,    2.8,  999.0,  999.0,    3.0,  999.0,  999.0,  999.0,    4.7,    4.5,    3.1,    2.1,    1.7,    1.0,    1.0,    1.3,    1.4,    1.0,    0.5,    0.4,    0.3
2000/05/27 07:30,   12.3,   13.7,   13.6,   15.9,   16.8,   17.2,   15.1,   14.5,   13.8,   12.4,    7.9,    7.8,    9.0,   10.3,   10.5,    8.0,  999.0,    5.4,    4.2,    4.2,  999.0,  999.0,  999.0,  999.0,  999.0,  999.0,    2.9,    4.1,    5.0,    6.0,    6.3,    6.4,    6.2,    5.0,    4.8,    3.5,    3.1,    2.3,    1.9,    2.1,    2.0,    1.6,    0.8,    0.1,    0.0,    0.1
2000/05/27 07:40,   11.5,   12.9,   13.5,   15.6,   17.2,   17.9,   16.7,   16.1,   15.3,   13.1,    8.3,    6.6,    7.9,    8.8,    8.1,    5.1,  999.0,    3.5,  999.0,    4.7,  999.0,  999.0,  999.0,  999.0,  999.0,  999.0,  999.0,    5.8,    6.8,    6.6,    6.2,    5.5,    4.7,    3.5,    2.7,    2.1,    1.6,    0.9,    0.2,   -0.9,   -1.1,   -1.0,   -0.9,   -1.0,   -1.0,   -1.3
2000/05/27 07:50,   11.4,   12.4,   14.5,   16.2,   17.7,   19.4,   18.4,   15.7,   13.3,   10.5,    6.5,    6.9,    6.8,    5.6,    3.7,    5.5,    4.1,    4.2,    4.8,    4.7,  999.0,    7.4,  999.0,    5.4,    3.8,    5.6,    6.8,    7.1,    7.0,    6.8,    4.9,    2.6,    1.6,    0.5,   -0.5,   -1.4,   -2.0,   -2.3,   -2.0,   -2.3,   -1.8,   -2.0,   -1.9,   -0.9,   -1.1,   -0.7
2000/05/27 08:00,   10.9,   13.1,   15.7,   16.4,   17.1,   18.9,   19.0,   14.0,   11.4,    9.2,    6.5,    6.5,    7.1,    4.7,    4.3,    5.6,    5.5,    6.5,    6.4,  999.0,  999.0,    7.3,  999.0,  999.0,  999.0,    6.7,    6.1,    5.7,    4.5,    3.5,    2.2,    0.5,   -1.4,   -3.0,   -3.0,   -2.3,   -1.4,   -1.0,   -1.5,   -2.0,   -2.7,   -2.3,   -2.2,   -1.8,   -1.1,   -0.4
2000/05/27 08:10,   10.4,   12.9,   15.0,   15.4,   17.4,   19.2,   19.3,   14.4,   11.9,    9.2,    7.3,    6.6,    5.0,    4.1,    3.9,  999.0,    6.8,    7.4,  999.0,  999.0,  999.0,  999.0,  999.0,    7.7,    6.9,    5.6,    4.2,    2.7,    0.5,   -1.2,   -2.1,   -2.1,   -2.0,   -2.1,   -2.3,   -2.0,   -1.2,    0.2,    1.0,    1.0,    0.7,   -0.5,   -1.6,   -2.4,   -2.7,   -2.4
2000/05/27 08:20,   10.3,   13.0,   14.0,   14.7,   17.3,   18.8,   18.0,   14.8,   13.4,    9.0,    7.5,    4.9,    4.8,    7.0,    6.3,    6.8,    8.8,    9.0,  999.0,  999.0,  999.0,  999.0,    7.3,    5.1,    3.6,    2.6,    2.3,    0.7,   -0.5,   -1.0,   -1.0,   -0.1,    0.3,    0.3,    0.3,    0.4,   -0.4,   -1.1,   -1.6,   -1.8,   -2.7,   -3.1,   -3.6,   -3.4,   -3.5,   -2.7
2000/05/27 08:30,    9.5,   11.4,   14.0,   13.6,   16.2,   18.3,   17.3,   15.3,   12.9,    9.1,    6.8,    4.5,    4.8,    7.8,    7.3,    8.1,    9.6,   10.0,  999.0,    8.8,    8.7,    7.4,    4.8,    3.7,    2.5,    1.8,    1.1,    0.4,    0.3,    1.2,    1.5,    1.6,    0.9,    0.5,   -0.1,   -0.7,   -1.3,   -1.9,   -2.6,   -3.5,   -5.0,   -5.7,   -5.8,   -6.0,   -6.1,   -9.2
2000/05/27 08:40,    9.7,   11.1,   14.1,   14.3,   16.7,   17.5,   16.7,   15.6,   13.4,    9.9,    6.9,    3.3,    5.9,    8.0,    8.2,  999.0,    9.9,    9.7,    9.4,  999.0,  999.0,  999.0,  999.0,    4.7,    2.9,  999.0,    0.7,    0.3,   -1.3,   -1.3,   -1.1,  999.0,  999.0,  999.0,  999.0,  999.0,  999.0,  999.0,  999.0,  999.0,  999.0,  999.0,  999.0,  999.0,  999.0,  999.0
2000/05/27 08:50,    9.7,   11.8,   14.9,   16.2,   16.8,   15.7,   14.0,   12.6,   11.6,    8.4,    6.7,    5.2,    5.1,    5.6,    5.2,    5.5,    6.9,  999.0,    7.3,    5.7,    3.9,  999.0,    5.4,    0.5,    0.7,    1.6,    0.2,   -1.0,   -1.3,   -1.3,   -2.5,  999.0,  999.0,  999.0,  999.0,  999.0,  999.0,  999.0,  999.0,   -0.1,   -0.5,  999.0,  999.0,   -0.1,  999.0,    0.7
2000/05/27 09:00,   10.6,   11.2,   13.7,   15.4,   16.1,   17.1,   13.1,   12.2,    7.0,    5.4,    6.2,    2.3,  999.0,   10.6,  999.0,    4.8,    6.5,    7.9,    4.5,    2.6,    4.2,    3.1,   -0.2,   -1.3,   -1.6,   -2.6,   -1.6,   -1.7,   -1.2,   -1.2,   -2.0,  999.0,  999.0,   -0.0,  999.0,  999.0,  999.0,    0.5,  999.0,  999.0,  999.0,  999.0,   -0.0,  999.0,   -1.1,   -0.7
2000/05/27 09:10,    9.7,  999.0,   13.4,   13.0,   14.7,   15.3,   14.7,   12.7,   11.8,   10.1,  999.0,  999.0,    5.3,    5.2,    3.1,    2.5,    2.8,    2.3,    3.3,    4.5,    5.2,    3.6,    1.1,   -1.1,   -1.5,   -1.3,   -3.0,  999.0,  999.0,  999.0,  999.0,  999.0,  999.0,  999.0,  999.0,  999.0,  999.0,   -1.4,  999.0,  999.0,  999.0,  999.0,   -0.3,    0.3,  999.0,   -0.0
2000/05/27 09:20,   10.2,   12.1,   13.6,  999.0,   15.6,   14.1,   13.0,   12.5,   11.5,   10.1,  999.0,    4.5,    5.9,    5.6,    3.1,    1.3,    1.4,  999.0,    6.2,    5.1,    3.3,    2.2,    0.3,    0.8,   -0.0,   -0.7,   -0.9,   -0.6,    0.1,    0.7,   -1.5,   -1.4,   -2.3,   -4.1,  999.0,  999.0,  999.0,  999.0,  999.0,  999.0,    0.3,   -0.2,   -0.2,   -0.3,  999.0,  999.0
2000/05/27 09:30,   10.3,   10.4,   14.1,   15.8,   16.4,   16.2,   14.0,   12.2,   11.5,   11.3,   10.0,    7.4,    7.0,    4.7,    3.5,    3.1,    4.1,  999.0,    5.5,    2.9,    2.7,    2.1,    2.8,    1.7,    0.5,   -0.2,    0.0,    0.5,    0.2,    0.1,   -1.8,   -3.2,   -4.8,   -4.5,  999.0,  999.0,  999.0,  999.0,  999.0,  999.0,  999.0,  999.0,  999.0,  999.0,    0.5,  999.0
2000/05/27 09:40,   10.8,   11.4,   13.4,   16.2,   16.0,   15.7,   12.9,   10.9,   10.8,    9.0,    8.0,    8.2,    7.3,    4.4,    3.4,  999.0,  999.0,    7.5,    7.7,    5.3,    5.0,    6.8,    5.7,    3.6,    1.9,    2.0,    2.2,    1.6,    0.6,   -0.3,   -2.1,   -4.0,   -4.6,   -4.9,   -5.0,   -5.3,   -6.2,   -7.1,   -6.7,   -5.4,   -5.4,   -5.4,   -4.3,   -3.7,   -2.8,  999.0
2000/05/27 09:50,   10.2,   11.3,   12.8,   15.7,   17.6,   15.7,   11.6,   11.2,    9.6,    6.5,    7.1,    4.8,    5.9,    4.6,    3.3,    4.2,    6.8,    9.0,    7.6,    5.9,    7.6,    7.5,    6.8,    6.2,    4.8,    5.0,    4.1,    3.1,    1.4,   -0.7,   -2.7,   -2.8,   -2.1,   -1.4,   -1.1,   -1.9,   -2.8,   -4.1,   -4.9,   -5.3,   -5.2,   -4.6,   -3.4,   -2.9,   -3.0,  999.0
2000/05/27 10:00,    9.8,  999.0,   12.6,   15.9,   15.7,   14.8,   12.6,   12.3,   11.9,    9.3,    8.7,    8.9,    8.0,    4.8,    5.6,    7.5,    6.6,   10.0,    7.6,    9.2,    7.7,    6.0,    5.2,    3.9,    3.1,    2.4,    0.6,   -0.2,   -0.8,   -1.3,   -2.1,   -2.6,   -2.0,   -0.8,   -2.1,   -2.2,   -2.5,   -2.6,   -3.0,   -3.4,   -3.7,   -3.4,  999.0,  999.0,  999.0,  999.0
2000/05/27 10:10,    9.5,   10.6,   13.6,   16.7,   17.8,   15.2,   14.3,   12.4,  999.0,    8.3,    8.4,    9.1,  999.0,    7.9,    7.8,    9.0,   11.0,  999.0,    9.6,    8.9,    6.6,    5.0,    3.4,    2.1,    1.6,    0.7,    1.2,    1.7,    1.9,    1.2,   -0.1,   -1.1,   -1.5,  999.0,  999.0,  999.0,  999.0,  999.0,  999.0,  999.0,  999.0,  999.0,  999.0,  999.0,  999.0,  999.0
2000/05/27 10:20,    9.7,   11.1,   14.2,   16.8,   17.0,   15.5,   13.2,   13.0,   10.9,    8.3,    7.9,    7.9,    6.5,    6.2,    6.6,    8.2,  999.0,  999.0,  999.0,    9.2,    8.0,    4.6,    3.1,    3.3,    3.6,    3.5,    3.6,    3.1,    2.7,    1.9,    0.5,   -0.2,   -0.3,  999.0,  999.0,  999.0,  999.0,  999.0,  999.0,  999.0,  999.0,  999.0,  999.0,   -1.6,   -2.1,   -2.2
2000/05/27 10:30,   10.4,   11.7,   13.9,   16.8,   16.1,   15.8,   12.6,   11.7,   11.2,    9.6,    7.9,    8.5,    7.6,    7.9,    9.3,   10.3,  999.0,  999.0,   10.4,    9.6,    7.5,    5.1,    4.9,    6.2,    7.0,    6.3,    5.8,    4.7,    3.5,    1.6,    0.4,   -0.5,  999.0,  999.0,    0.5,    0.3,   -1.1,   -2.1,   -3.1,   -4.2,   -3.6,   -3.8,   -2.5,   -0.7,  999.0,  999.0
2000/05/27 10:40,   10.5,   11.4,   13.4,   16.5,   15.5,   15.2,   13.2,   12.7,   11.8,  999.0,    8.2,  999.0,    9.7,   10.3,   10.0,   11.7,  999.0,  999.0,    8.8,    7.3,    6.9,    6.9,    7.0,    7.7,    8.0,    7.1,    6.0,    4.2,    3.0,    2.4,    1.9,    2.2,    2.4,    2.4,    2.2,    2.0,    1.8,    1.1,    0.6,    0.0,   -0.1,   -0.5,    0.1,    0.6,    1.0,    1.4
2000/05/27 10:50,   11.4,   13.1,   14.4,   16.0,   15.6,   15.0,   14.0,   12.8,   11.0,    9.7,    8.6,    9.2,    9.5,    9.8,    9.3,    7.3,    7.9,    7.9,    8.7,    8.1,    8.0,    8.1,    7.6,    7.1,    5.6,    4.5,    3.9,    3.9,    4.4,    5.2,    5.1,    3.8,    2.3,    1.3,    0.7,    0.0,   -0.6,   -0.9,   -1.0,   -1.4,   -1.4,   -1.5,   -1.5,   -1.0,   -0.7,   -0.4
2000/05/27 11:00,   11.9,   13.4,   13.6,   15.2,   15.3,   14.2,   13.0,   12.5,   12.6,   10.8,    8.4,    7.4,    8.3,    8.8,    8.0,    7.3,  999.0,  999.0,    9.2,    9.8,    8.7,    7.1,    6.4,    6.3,    6.1,    6.5,    6.2,    5.6,    5.3,    5.2,    5.2,    4.8,    4.7,    3.9,    2.8,    1.7,    0.8,    0.0,   -0.6,   -0.7,   -1.0,   -0.7,   -0.5,   -0.4,   -0.2,   -0.3
2000/05/27 11:10,   12.3,   14.0,   14.7,   16.4,   16.1,   14.1,   12.7,   13.1,   14.0,   13.0,    9.2,    7.4,    7.3,    7.9,    7.8,    8.6,    7.9,    9.2,    9.4,    7.8,    5.3,    5.3,    5.4,    5.3,    5.7,    5.2,    4.4,    3.5,    3.4,    3.4,    4.0,    4.3,    4.3,    4.2,    3.5,    2.8,    1.8,    1.4,    1.1,    1.1,    1.1,    0.6,    0.6,    0.6,    0.2,    0.0
2000/05/27 11:20,   11.9,   13.6,   15.5,   17.3,   16.8,   15.1,   15.0,   15.9,   15.3,   13.7,   10.5,    7.1,    6.5,    6.6,    7.0,    8.4,  999.0,    7.5,    5.8,    4.9,    4.4,    4.6,    5.3,    4.1,    3.6,    3.2,    3.7,    3.6,    4.1,    4.3,    4.0,    3.9,    4.2,    4.5,    4.6,    3.1,  999.0,    1.5,    0.1,   -0.3,    0.6,   -0.0,   -0.7,  999.0,  999.0,  999.0
2000/05/27 11:30,   12.1,   14.5,   16.1,   17.9,   18.1,   16.0,   15.7,   15.8,   13.9,   13.6,   11.2,    8.2,    6.9,    6.6,    8.3,    7.6,  999.0,    5.9,    5.0,    3.9,    4.0,    4.1,    4.1,    4.1,    4.4,    4.5,    5.0,    4.8,    3.6,    2.9,    2.0,    1.8,    0.5,    1.3,    2.0,    1.4,    1.0,   -0.2,   -2.0,   -1.8,   -1.7,   -1.3,  999.0,  999.0,  999.0,  999.0
2000/05/27 11:40,   12.8,   15.6,   17.6,   20.5,   17.2,   16.3,   15.1,   13.1,   11.1,    9.2,    9.2,    8.9,    7.3,    6.8,    7.5,    6.3,  999.0,    2.8,    3.2,    4.0,    3.5,    1.9,    3.0,    3.1,    4.3,    3.8,    2.9,    2.0,    0.5,   -1.2,   -2.6,   -2.2,  999.0,  999.0,  999.0,  999.0,  999.0,  999.0,  999.0,  999.0,  999.0,  999.0,  999.0,   -0.5,    1.4,  999.0
2000/05/27 11:50,   13.7,   15.9,   18.4,   19.4,   18.0,   17.4,   14.3,   12.6,   10.2,    8.0,    7.7,    7.8,    8.4,    7.0,    4.3,    2.5,  999.0,    4.2,    3.8,    2.9,    2.9,    3.3,    3.9,    4.1,    4.0,    4.5,    4.1,    2.8,    1.5,   -0.4,   -0.3,   -0.3,   -0.3,   -0.7,   -1.0,   -0.7,   -0.5,   -0.4,   -0.2,   -0.1,   -0.1,    0.1,    0.2,   -0.0,   -0.2,   -0.3
2000/05/27 12:00,   13.5,   15.4,   19.1,   17.8,   17.5,   16.0,   13.5,   10.6,    8.1,    7.4,    7.3,    7.3,    7.4,    6.4,    3.9,    4.7,  999.0,    4.1,    2.8,    2.8,    3.8,    4.4,    4.3,    3.8,    3.3,    2.6,    2.3,    1.4,    1.2,    0.8,    0.2,    0.3,    0.2,    0.4,    0.8,    1.7,    2.2,    2.1,    1.9,    1.1,    0.6,    0.2,   -0.1,    0.3,    0.7,    0.2
2000/05/27 12:10,   13.9,   14.9,   17.5,   18.6,   18.5,   15.3,   11.5,    9.4,    7.5,    6.3,    6.1,    6.5,    5.9,    5.9,    4.7,    4.6,  999.0,    3.9,    4.6,    4.7,    5.5,    6.1,    6.5,    6.2,    5.8,    4.9,    4.3,    3.9,    4.2,    3.4,    2.7,    1.8,    1.9,    1.7,    1.7,    2.0,    1.3,    1.8,    1.4,    0.6,    0.6,    1.9,    1.7,  999.0,  999.0,  999.0
2000/05/27 12:20,   14.4,   15.6,   19.0,   19.0,   19.1,   14.9,   12.1,   11.2,    8.5,    7.6,    6.8,    6.0,    6.1,    4.7,    3.4,    4.5,    5.9,    5.3,    5.3,    4.4,    4.6,    5.7,  999.0,  999.0,  999.0,    4.6,  999.0,    3.6,  999.0,  999.0,    0.1,    0.7,    1.3,    0.5,   -0.3,    6.5,    0.6,    0.6,  999.0,  999.0,  999.0,  999.0,  999.0,  999.0,  999.0,  999.0
2000/05/27 12:30,   14.2,   14.7,   17.4,   19.2,   19.1,   14.8,   13.4,  999.0,    9.4,    9.1,  999.0,    1.8,  999.0,    1.5,    1.9,    4.2,    5.5,    5.8,    6.0,    3.4,    3.5,    3.0,  999.0,  999.0,  999.0,  999.0,  999.0,  999.0,  999.0,  999.0,  999.0,   -0.2,  999.0,  999.0,   -0.1,    0.1,  999.0,  999.0,   -0.4,    0.0,    0.1,   -0.4,  999.0,  999.0,    0.0,  999.0
2000/05/27 12:40,   13.4,   12.3,   16.8,   16.1,  999.0,   11.0,  999.0,   15.0,    5.7,  999.0,    8.3,    6.7,    2.1,    2.7,    3.7,    7.3,    4.1,    6.6,    2.9,    3.6,    2.9,    3.6,    5.3,    5.6,    5.6,    4.8,    4.7,  999.0,    2.8,    1.6,   -0.4,   -0.9,   -0.1,    0.1,    0.9,    1.6,  999.0,  999.0,  999.0,  999.0,  999.0,  999.0,  999.0,  999.0,  999.0,    0.2
2000/05/27 12:50,   13.0,   12.9,   16.8,   15.1,   14.5,   10.2,    9.2,    8.0,    7.6,    6.7,    6.4,    5.8,    3.2,    3.2,    5.1,    3.9,    4.6,    4.7,    4.4,    4.0,    3.7,    4.0,    4.2,    5.2,    4.8,    4.2,    3.5,    3.1,    2.4,    1.6,    0.8,    0.3,    0.4,    2.0,    2.8,    3.1,    2.8,    2.7,    2.4,    2.3,    2.5,    2.1,    1.8,    1.2,    1.7,    3.5
2000/05/27 13:00,   12.3,   14.9,   14.8,   12.8,   11.6,   10.6,    9.8,    8.7,    8.6,    6.5,    5.5,    4.4,    4.7,    5.8,    5.9,    5.4,    4.7,    4.3,    4.5,    4.4,    5.4,    5.5,    5.9,    5.9,    6.5,    4.9,    4.2,    2.6,    2.0,    0.8,    2.9,    2.8,    2.9,  999.0,    2.9,    2.9,    2.2,    0.2,   -1.1,   -2.1,   -1.8,   -1.8,   -0.5,    0.6,    1.5,    1.9
2000/05/27 13:10,   15.3,   16.1,   15.8,   13.6,   11.9,   10.5,    8.6,    6.0,    7.1,    4.5,    4.5,    4.7,    3.8,    5.1,    5.7,    5.6,    5.6,    5.4,    5.4,    5.6,    5.8,  999.0,    4.9,    5.7,    5.7,  999.0,  999.0,  999.0,  999.0,    8.1,    6.9,    4.4,    2.2,  999.0,  999.0,  999.0,    0.1,   -0.1,  999.0,  999.0,  999.0,    2.3,    1.1,    3.9,    4.1,    2.6
2000/05/27 13:20,   14.1,   16.7,   19.4,   16.3,   13.2,   10.6,    8.7,  999.0,    6.4,    2.6,    6.2,    4.4,    5.0,    7.0,    6.9,    7.7,    8.5,    8.3,    7.4,    6.5,    6.3,    6.2,    5.7,    5.3,    5.3,    6.1,    7.0,    7.2,    9.0,  999.0,  999.0,  999.0,  999.0,  999.0,  999.0,    0.0,  999.0,    0.4,  999.0,  999.0,  999.0,  999.0,  999.0,  999.0,   -0.6,  999.0
2000/05/27 13:30,   10.4,  999.0,   17.4,   15.9,   13.9,   11.0,   10.3,   12.3,   11.3,    8.7,    7.2,    6.9,    7.5,    8.4,    8.7,    7.8,    9.0,   10.3,    7.5,    7.5,    6.8,    5.8,    6.2,    6.5,    5.3,    5.8,    5.9,    8.1,    8.7,    5.0,    2.5,  999.0,  999.0,  999.0,  999.0,  999.0,  999.0,  999.0,  999.0,  999.0,  999.0,  999.0,    0.3,   -0.1,  999.0,    0.3
2000/05/27 13:40,   13.5,   14.4,   16.0,   15.2,    9.1,  999.0,   10.1,  999.0,  999.0,    6.6,  999.0,  999.0,    7.9,    9.1,    8.1,    8.5,    9.0,    8.8,    8.3,    6.9,    8.0,    4.1,    4.4,    4.7,  999.0,  999.0,    5.0,    4.4,    3.3,    4.3,    2.9,    2.7,  999.0,  999.0,  999.0,  999.0,  999.0,  999.0,  999.0,  999.0,  999.0,  999.0,  999.0,  999.0,  999.0,  999.0
2000/05/27 13:50,   12.6,   14.0,   16.6,   14.9,   11.9,   10.4,    9.6,   11.2,   10.8,    9.9,    9.1,    8.7,    8.6,    7.6,    7.5,    7.1,    6.4,    6.8,    5.2,    5.2,    3.1,    2.9,  999.0,  999.0,  999.0,  999.0,    4.3,    4.2,    3.6,    2.5,    2.7,    2.0,    1.0,    2.0,  999.0,  999.0,  999.0,  999.0,  999.0,  999.0,  999.0,  999.0,  999.0,  999.0,  999.0,  999.0
2000/05/27 14:00,   12.7,   13.0,   14.9,  999.0,   10.0,  999.0,   13.0,  999.0,   12.5,   11.4,    7.0,    6.4,    6.9,    5.4,  999.0,    1.3,    1.3,    1.2,    1.4,    2.9,    3.0,    2.9,    2.2,    2.1,    3.1,    2.5,    4.7,    4.4,    4.0,    4.5,    4.4,    3.5,    3.7,    4.3,  999.0,  999.0,  999.0,  999.0,  999.0,  999.0,  999.0,  999.0,  999.0,  999.0,  999.0,  999.0
2000/05/27 14:10,   14.1,   12.5,   12.5,   15.4,   17.4,   17.9,   16.5,   15.8,    8.4,    8.0,    6.0,    6.3,    6.1,    5.5,    3.7,    1.2,    3.3,    2.9,    2.1,    2.3,    3.3,    3.3,    4.0,    4.5,    4.7,    4.4,    4.4,    5.9,    7.0,    7.0,    5.5,    5.0,    5.8,    6.6,    6.5,  999.0,  999.0,  999.0,  999.0,  999.0,  999.0,  999.0,  999.0,  999.0,  999.0,  999.0
2000/05/27 14:20,   12.3,   12.9,   14.4,   14.9,   16.8,   17.7,   14.2,   11.1,    6.8,    3.4,    2.0,    1.9,    1.0,    0.5,    1.0,    2.1,    4.5,    4.9,    6.2,    6.2,    6.5,    7.1,    7.3,    9.0,    9.1,    8.5,    9.4,    9.0,    8.9,    7.1,    8.0,   10.0,    8.4,    6.6,    4.4,    4.0,   -1.1,    6.8,    2.0,    6.8,  999.0,  999.0,  999.0,  999.0,  999.0,  999.0
2000/05/27 14:30,   12.2,   13.5,   13.5,   17.0,   17.8,   17.5,  999.0,   12.7,   10.2,    5.7,    3.1,  999.0,    2.1,   -0.2,    1.7,    5.5,    6.3,    7.1,    8.2,    8.2,    8.4,   10.3,    9.0,    7.1,    4.8,    5.4,    5.3,    2.4,    2.2,    0.7,   -1.2,    0.4,    2.3,    0.8,    2.1,    4.1,  999.0,    4.4,    4.9,  999.0,  999.0,    0.0,   -0.3,   -0.3,    0.1,    0.3
2000/05/27 14:40,   12.6,   14.2,   17.4,   17.1,   18.1,   16.2,   16.2,   12.5,    9.3,  999.0,    3.3,    4.0,    4.1,    4.3,    3.6,    5.6,    8.7,    9.2,   10.0,   11.0,   11.6,    9.7,    7.8,    7.9,    6.4,    4.0,  999.0,  999.0,  999.0,    1.0,    0.2,    0.3,  999.0,  999.0,  999.0,  999.0,  999.0,  999.0,  999.0,  999.0,  999.0,   -0.1,  999.0,  999.0,  999.0,    0.4
2000/05/27 14:50,   12.6,   12.4,  999.0,  999.0,   20.6,   16.6,   14.1,   11.1,    9.6,    6.2,    3.7,  999.0,    4.8,    5.2,    7.1,    7.5,   10.6,   12.0,   12.8,   11.2,    8.2,    6.5,    6.6,    6.1,    5.6,    5.3,  999.0,  999.0,  999.0,  999.0,  999.0,    3.5,  999.0,  999.0,  999.0,  999.0,  999.0,  999.0,  999.0,  999.0,  999.0,    0.3,  999.0,  999.0,  999.0,  999.0
2000/05/27 15:00,   13.2,   14.6,   15.4,   19.0,  999.0,   15.6,  999.0,   14.4,    8.8,    7.3,    5.0,    7.4,    7.9,   12.6,   12.5,   14.3,   11.6,   10.9,   10.1,   13.6,    7.6,    6.6,    3.6,    2.5,    2.4,   -0.3,    5.5,    5.7,    5.3,  999.0,  999.0,    3.4,  999.0,  999.0,    0.6,  999.0,    0.0,  999.0,   -0.4,   -0.2,    0.1,  999.0,    0.6,  999.0,  999.0,  999.0
2000/05/27 15:10,   13.2,   15.7,   15.9,   15.3,  999.0,   16.7,   16.6,   16.6,   15.0,   12.7,   11.4,   13.2,  999.0,   16.0,   17.2,   10.9,    8.3,    8.3,    6.1,    4.9,    6.0,    5.2,    2.5,    3.5,    1.1,   -0.5,    4.5,    6.3,    4.9,    3.8,    3.1,  999.0,  999.0,   -0.2,  999.0,   -0.3,   -1.0,   -0.0,   -0.0,    0.7,   -0.4,   -1.5,   -0.2,    0.3,   -0.4,    0.3
2000/05/27 15:20,  999.0,   15.4,   15.7,   18.9,   19.6,   18.5,   18.3,   16.3,   14.0,   12.3,  999.0,   12.9,  999.0,  999.0,  999.0,  999.0,  999.0,   13.0,    6.7,    5.4,    4.6,    5.6,    3.9,    1.7,    0.9,  999.0,    0.6,    4.3,    5.7,    5.2,  999.0,  999.0,   -0.0,  999.0,  999.0,  999.0,  999.0,    0.0,   -0.5,   -0.0,  999.0,    0.0,   -0.6,  999.0,  999.0,  999.0
2000/05/27 15:30,   13.0,   15.6,   11.4,   17.6,   13.5,   16.8,   16.0,  999.0,  999.0,  999.0,  999.0,   13.8,   10.2,    7.9,    7.8,    6.6,    6.5,    4.9,    4.1,    3.9,    3.3,    1.9,   -0.5,  999.0,  999.0,  999.0,  999.0,  999.0,  999.0,  999.0,  999.0,  999.0,  999.0,  999.0,  999.0,  999.0,  999.0,  999.0,    1.0,  999.0,  999.0,    0.0,   -0.2,   -0.5,    0.9,  999.0
2000/05/27 15:40,  999.0,   15.0,  999.0,   17.4,   18.8,   17.3,   18.8,   18.8,   18.7,   18.3,   16.4,  999.0,  999.0,    6.9,  999.0,    6.9,    7.1,    5.7,    6.1,    6.0,    5.6,    3.6,    0.9,    0.6,    1.5,    0.1,  999.0,  999.0,  999.0,  999.0,  999.0,  999.0,   -0.2,  999.0,  999.0,    0.0,    0.5,  999.0,    0.4,   -0.5,  999.0,  999.0,  999.0,    0.4,   -0.4,  999.0
2000/05/27 15:50,   13.2,   14.7,   17.1,   17.3,   17.7,   18.8,   19.6,   19.9,   18.9,   17.5,  999.0,  999.0,  999.0,    6.8,    6.0,    6.6,    6.5,    6.6,    6.5,    8.0,    7.9,  999.0,  999.0,    1.6,  999.0,  999.0,  999.0,  999.0,  999.0,  999.0,  999.0,   -0.1,  999.0,  999.0,  999.0,  999.0,  999.0,  999.0,  999.0,  999.0,  999.0,  999.0,  999.0,  999.0,  999.0,  999.0
2000/05/27 16:00,   13.1,   15.3,   16.7,   19.3,   18.3,   19.6,   20.2,   19.7,   19.3,   18.0,   14.2,   10.6,  999.0,    7.8,    7.5,    7.0,    6.1,    6.6,  999.0,    9.5,    8.5,    3.9,    1.5,    0.2,   -0.5,  999.0,  999.0,  999.0,  999.0,  999.0,  999.0,    0.4,  999.0,   -0.2,  999.0,  999.0,  999.0,  999.0,  999.0,    0.3,    0.4,  999.0,  999.0,   -0.4,  999.0,  999.0
2000/05/27 16:10,   12.9,   14.1,   18.1,   20.5,   19.3,   20.8,   20.2,   20.1,   17.8,   16.1,   11.9,    8.7,    8.0,    7.7,    7.9,    7.2,  999.0,  999.0,  999.0,    8.1,    7.5,  999.0,    3.1,    1.8,    1.7,    1.0,  999.0,  999.0,  999.0,  999.0,  999.0,  999.0,  999.0,  999.0,  999.0,  999.0,  999.0,  999.0,  999.0,  999.0,  999.0,  999.0,  999.0,  999.0,  999.0,  999.0
2000/05/27 16:20,   12.4,   14.0,  999.0,  999.0,   20.4,   22.0,   20.8,   18.9,   17.2,   15.3,   13.0,    7.2,    7.0,    7.6,    7.3,    6.4,    6.1,  999.0,  999.0,    6.5,  999.0,    3.5,  999.0,  999.0,  999.0,  999.0,  999.0,  999.0,  999.0,  999.0,  999.0,  999.0,  999.0,  999.0,  999.0,   -0.1,  999.0,  999.0,  999.0,  999.0,  999.0,  999.0,    4.3,    2.4,    2.3,    2.8
2000/05/27 16:30,   11.6,   13.9,  999.0,  999.0,  999.0,   21.0,   21.2,   19.6,   17.0,   14.6,   11.1,    6.8,    6.1,    7.3,    6.6,    6.1,    5.3,  999.0,    6.7,    6.4,    5.4,    4.9,    5.0,    3.2,  999.0,  999.0,    2.9,  999.0,  999.0,  999.0,  999.0,  999.0,  999.0,  999.0,  999.0,  999.0,  999.0,  999.0,  999.0,    5.5,    4.7,    4.2,    3.3,    3.2,    3.1,    3.2
2000/05/27 16:40,   10.2,   12.8,   14.9,   17.8,   21.0,   21.6,   21.4,   19.4,   15.9,   13.2,   10.3,    7.7,    5.2,    4.8,    4.4,    5.1,    5.9,    7.8,    6.2,    6.3,    6.4,    6.4,  999.0,    3.3,    2.3,    1.5,  999.0,    5.0,  999.0,  999.0,  999.0,  999.0,  999.0,  999.0,  999.0,  999.0,  999.0,  999.0,    6.3,    5.5,    5.9,    5.5,    4.4,    4.6,  999.0,    6.5
2000/05/27 16:50,   11.4,   13.0,   15.5,   21.5,   22.2,   23.1,   20.6,   18.0,   15.6,   12.7,   10.3,    7.9,    5.4,  999.0,    5.8,    5.4,  999.0,    5.4,    4.5,    6.1,  999.0,  999.0,  999.0,    3.5,    1.6,    1.5,  999.0,  999.0,  999.0,  999.0,  999.0,  999.0,  999.0,    4.3,    6.0,  999.0,  999.0,  999.0,    7.2,    7.6,    6.8,    5.7,  999.0,  999.0,  999.0,    8.0
2000/05/27 17:00,   12.7,   14.3,   19.5,   21.7,   21.6,   19.2,   16.4,   13.7,   10.3,    9.8,    8.6,    7.0,    4.5,  999.0,  999.0,    5.4,  999.0,    3.4,  999.0,  999.0,    3.7,  999.0,  999.0,    2.7,    3.1,    1.7,    1.6,    2.8,    4.5,  999.0,  999.0,  999.0,  999.0,  999.0,  999.0,  999.0,  999.0,    7.1,    8.1,  999.0,    9.8,    9.7,    9.3,    9.0,    9.1,   10.4
2000/05/27 17:10,   12.1,   14.6,   19.5,   21.2,   18.2,   15.4,   12.2,    9.7,    7.6,    6.7,    7.8,    6.5,    5.9,    5.3,    6.0,    4.1,    4.2,    4.1,    3.1,    2.0,  999.0,    3.5,  999.0,    1.8,    1.0,    1.5,    1.4,    1.7,    4.6,  999.0,  999.0,    4.2,  999.0,  999.0,    7.5,    7.1,    7.2,    7.8,    8.8,    9.9,   10.4,   10.4,   10.3,   11.0,   11.6,   12.1
2000/05/27 17:20,  999.0,   13.1,   19.0,   19.7,   17.5,   11.9,    7.4,    8.4,    9.2,    8.8,   11.9,   11.7,    9.4,    5.9,    4.9,    7.7,    5.5,    1.3,    0.2,    2.4,    2.4,  999.0,    2.6,    2.4,    2.9,    1.9,    1.2,    1.1,    2.3,  999.0,    3.4,    3.8,    5.4,    7.6,    9.7,    8.7,    8.4,    9.1,    9.7,   10.0,   10.2,   10.5,   11.3,   12.2,   12.6,   12.0
2000/05/27 17:30,   11.3,   14.5,   18.5,   18.6,  999.0,   11.9,    8.5,    6.6,    8.8,    9.4,   12.1,    9.6,   10.9,    9.9,    9.2,    6.4,    5.4,    5.3,    4.9,    4.9,    6.1,    5.3,    3.5,    2.7,    4.5,    6.5,    4.7,  999.0,    4.7,    5.4,    3.2,    3.0,    5.5,    8.0,    9.3,    9.3,   11.2,   12.0,   11.9,   10.7,   10.8,   12.0,   12.1,   11.7,   11.6,   11.9
2000/05/27 17:40,   11.0,   14.1,   18.5,   17.6,   15.5,   13.1,   10.6,    8.9,  999.0,    8.5,   10.6,   12.3,   11.3,   10.6,   10.1,    9.4,   10.0,    7.2,    5.9,    5.2,    5.1,  999.0,    2.6,    3.3,    4.8,    4.1,    2.4,    5.8,    5.0,    6.0,    5.0,    6.8,    7.2,    9.1,    9.7,    8.9,    9.9,    9.8,   11.6,   11.7,   12.3,   11.8,   10.7,   11.0,   12.3,   12.6
2000/05/27 17:50,   10.9,   14.6,   18.4,   17.7,  999.0,   12.8,  999.0,  999.0,  999.0,  999.0,    9.4,  999.0,   12.2,   11.0,   10.2,   10.1,    9.7,    9.3,    8.2,    8.0,    6.0,    4.9,    5.3,    5.0,    4.9,    5.5,    5.6,    6.5,    6.5,  999.0,    7.2,    8.4,   10.1,   11.0,   10.0,   10.2,   11.4,   11.9,   12.1,   12.0,   11.5,   11.7,   13.2,   13.7,   13.0,   12.8
2000/05/27 18:00,   11.4,   14.9,   17.7,   15.2,   11.5,    9.0,    7.0,    5.8,    5.3,    7.3,    9.8,   11.7,   12.6,   11.6,   10.7,    9.5,   14.0,    9.2,    9.6,  999.0,  999.0,  999.0,  999.0,    6.5,    6.5,    6.3,    6.7,    6.9,    6.7,    7.9,    8.9,    9.4,   10.1,   10.0,   11.7,   14.1,   13.9,   13.5,   13.2,   12.0,   12.9,   14.1,   14.5,   14.5,   13.6,   13.2
2000/05/27 18:10,   11.7,   15.1,   19.6,   17.9,  999.0,    8.5,  999.0,  999.0,  999.0,  999.0,    7.5,    9.6,    9.9,    7.5,    5.7,    5.6,    6.5,    7.6,    8.5,  999.0,    7.0,  999.0,    7.4,    8.9,   10.3,    6.4,    2.2,    6.8,    8.3,    7.5,    7.6,    8.8,    8.1,    8.2,   10.5,   12.0,   11.9,   11.9,   11.5,   11.0,   10.2,   10.9,   11.5,   10.6,   10.2,   10.5
2000/05/27 18:20,  999.0,  999.0,   17.2,   19.8,  999.0,  999.0,  999.0,  999.0,    4.8,    6.7,    9.6,   11.8,   12.2,    9.5,    8.4,    9.2,   12.3,   11.9,   12.4,   13.1,   11.9,   11.0,   11.0,   10.0,    9.5,    7.8,    8.2,    6.1,    7.4,    6.7,    5.6,    5.8,    7.4,   10.2,   11.3,   11.6,   12.1,   12.3,   12.0,   10.5,   10.1,    9.7,    9.8,    9.6,    9.0,    9.5
2000/05/27 18:30,   15.0,  999.0,  999.0,  999.0,  999.0,  999.0,  999.0,  999.0,  999.0,  999.0,  999.0,  999.0,    8.0,  999.0,    7.8,    9.7,   10.1,  999.0,   12.3,   12.2,   12.1,   12.2,   12.0,   12.4,   11.3,   12.1,    8.7,    7.2,    7.0,    8.1,    8.6,    9.5,   12.4,   13.5,   13.2,   12.8,   13.2,   12.6,   11.6,   10.3,   10.0,    9.9,    9.7,    9.7,    9.8,   10.0
2000/05/27 18:40,   13.1,   14.6,   15.6,   13.0,    9.2,  999.0,    8.8,    2.6,    2.3,    2.2,    8.1,  999.0,    7.2,    7.5,  999.0,    6.3,    8.1,    9.4,   11.5,   13.6,   12.2,   12.8,   12.0,   11.3,   11.3,    9.8,    7.0,    6.2,    7.0,    8.0,    8.6,   10.8,   13.2,   13.3,   12.7,   12.8,   13.0,   12.2,   10.2,    9.4,    9.1,    9.4,    9.6,    9.9,   10.6,   10.3
2000/05/27 18:50,   12.8,   14.0,   14.4,  999.0,    8.2,  999.0,    6.4,  999.0,  999.0,    4.9,   10.0,   11.8,   10.1,    8.1,    7.6,    9.2,    9.4,    9.9,   11.3,   12.8,   10.9,   10.7,   11.4,   10.7,    9.5,    8.4,    7.1,    7.2,  999.0,    9.6,    9.0,   10.3,   12.2,   12.4,   12.4,   12.1,   10.9,    9.6,  999.0,  999.0,    9.1,    9.2,    9.7,   10.3,   10.5,   10.4
2000/05/27 19:00,   12.6,   13.6,   14.3,   11.9,    7.8,    6.4,    6.6,    5.8,    5.5,  999.0,  999.0,  999.0,    4.6,    6.5,    6.8,    7.9,    8.9,  999.0,   11.8,   14.2,   14.3,   14.2,   13.2,   11.1,   10.2,    9.1,    8.5,    9.0,    9.9,    9.3,    9.0,    9.5,   11.2,   12.4,   11.8,   11.2,   10.0,    9.5,   10.0,   10.0,   10.2,   10.4,   10.5,   10.3,    9.8,    9.7
2000/05/27 19:10,  999.0,   13.7,   13.7,    9.2,    6.3,    6.4,    6.4,    5.2,    5.1,    7.9,  999.0,    9.4,    8.8,    5.7,    5.3,    6.5,    8.7,   10.0,   10.6,  999.0,   10.2,    9.8,    9.4,    9.2,   10.1,    8.7,    8.6,  999.0,  999.0,    9.4,    8.0,    8.6,   11.1,   11.9,   11.7,   11.2,   10.1,   10.4,   10.6,   10.1,   10.0,    9.5,    9.0,    8.3,    7.7,    7.4
2000/05/27 19:20,   13.1,  999.0,  999.0,    8.4,    6.0,    5.5,    4.9,    4.9,    6.6,  999.0,    8.9,    8.7,    8.1,    6.0,    7.9,    8.5,    9.9,   11.0,   13.6,   13.2,   10.8,   10.0,    8.9,  999.0,  999.0,    8.8,  999.0,  999.0,    9.9,  999.0,    8.9,    8.8,   10.1,   11.2,   10.9,   10.9,   11.0,   10.9,    9.1,    8.0,    7.4,    8.0,    7.8,    7.0,    6.1,    5.8
2000/05/27 19:30,   12.4,   12.3,   10.9,    6.6,    5.2,    3.8,    3.5,    3.7,    5.1,    6.1,    7.1,    8.3,    8.0,    7.6,    8.0,    8.9,   10.9,   12.8,   13.5,   12.2,   11.1,   10.7,   10.7,    9.8,  999.0,  999.0,   11.0,   10.9,    8.4,    7.7,   10.1,   10.9,   11.8,   11.6,   11.5,   10.4,    9.2,    9.0,    8.6,    7.5,    6.9,    6.7,    6.3,    5.8,    5.4,    5.3
2000/05/27 19:40,   12.8,   13.3,   10.4,    5.9,    3.9,    2.9,    3.4,    4.5,    4.9,    5.9,    7.1,    8.6,    8.6,    7.7,    7.8,   10.2,   11.9,  999.0,   11.2,   10.7,  999.0,  999.0,  999.0,  999.0,  999.0,   10.9,   11.2,   10.4,   10.2,   11.6,   11.3,   10.9,    9.9,    8.4,    8.4,    7.8,    7.3,    7.1,    7.0,    6.4,    6.0,    5.6,    5.2,    5.3,    5.3,    5.2
2000/05/27 19:50,   12.7,   12.3,    8.1,    5.3,    4.3,    2.9,    4.7,    4.1,    4.1,    4.7,    6.3,    6.8,    7.4,    6.6,    6.8,    9.2,   10.6,   11.2,   11.8,  999.0,  999.0,  999.0,  999.0,  999.0,  999.0,  999.0,   12.4,   13.0,   12.6,   10.7,    9.4,    8.8,    8.2,    8.1,    7.6,    6.4,    6.4,    6.0,    6.0,    5.9,    5.8,    6.0,    6.0,    5.8,    5.1,    4.7
2000/05/27 20:00,   12.9,   12.0,    9.7,    7.5,    6.5,    6.1,    5.7,    5.3,    5.7,    3.5,    4.1,    5.1,    6.2,    6.2,    7.5,    8.2,   10.0,    9.7,    9.8,   10.4,  999.0,  999.0,   14.3,   14.6,   14.7,   14.4,   13.9,   12.8,   11.5,   10.4,    9.7,    8.7,    8.1,    7.0,    5.5,    4.9,    4.8,    5.0,    5.1,    5.0,    4.3,    3.2,    3.0,    3.7,    4.1,    4.4
2000/05/27 20:10,   12.8,   12.4,   10.0,    5.8,    4.9,    4.5,    4.3,    2.8,    1.3,    1.2,    2.8,    4.2,    5.6,    5.5,    5.3,    7.4,    8.3,  999.0,   11.9,   12.3,   13.9,   14.2,   15.3,   15.3,   14.5,   12.6,   10.6,    8.9,    6.3,    6.0,    5.7,    6.3,    5.9,    5.5,    5.2,    4.9,    4.6,    4.2,    3.6,    3.1,    3.7,    4.4,    3.6,  999.0,  999.0,  999.0
2000/05/27 20:20,   11.2,    9.5,    6.9,    4.8,    3.1,    2.9,    3.4,    3.8,    3.8,    4.1,    5.3,    6.5,    6.9,    7.1,    7.4,    8.7,    8.6,   10.9,   12.2,   12.6,   12.0,   11.9,   11.5,   12.1,   12.2,   10.8,    8.4,    5.9,    4.9,    5.1,    5.3,    5.3,    6.3,    6.5,    6.6,    6.0,    5.2,    4.1,    3.5,    3.7,    4.2,    5.2,  999.0,  999.0,  999.0,  999.0
2000/05/27 20:30,   10.4,    8.3,    5.3,    4.6,    4.4,    4.1,    4.8,    6.7,    8.0,    9.0,    9.0,    9.0,    9.4,    8.2,    6.9,    6.7,    7.3,    7.2,    7.1,    8.5,    9.6,    9.4,    9.0,    9.4,    9.0,    7.9,    6.9,    6.4,    5.8,    6.3,    6.3,    7.0,    7.5,    7.9,    8.0,    7.2,    6.7,    6.5,  999.0,    5.9,  999.0,    4.9,    4.9,  999.0,  999.0,  999.0
2000/05/27 20:40,   10.6,    7.3,    6.1,    5.3,    6.6,    6.2,    6.7,    8.2,    9.1,    9.7,   10.8,   11.3,    9.9,   10.3,   10.5,    8.1,    9.1,    8.1,    8.2,    8.4,    8.1,    7.6,    6.7,    6.3,    5.7,    5.1,    4.9,    4.6,    4.5,    4.2,    4.8,    4.9,    4.6,    4.6,    5.1,    5.2,    5.4,    5.8,    6.1,    6.1,    6.3,    6.0,    5.5,    5.9,    5.8,    5.7
2000/05/27 20:50,   10.6,    9.5,    9.2,    7.5,    6.2,    6.4,    9.0,   10.4,   10.8,   11.4,   11.7,   11.4,   11.1,   11.1,   11.6,   10.2,    9.5,  999.0,  999.0,    7.1,    5.6,    4.9,    4.7,    4.4,    4.5,    4.3,    4.2,    4.0,    3.9,    3.9,    3.8,    3.9,    4.2,    4.3,    4.3,    4.6,    5.5,    6.0,    6.3,    6.3,    6.1,    6.2,    5.8,    5.3,    5.3,    5.4
2000/05/27 21:00,    9.7,   10.6,    9.0,    7.1,    5.4,    5.5,    7.4,    9.6,   11.5,   12.0,   10.9,   10.9,   11.5,   10.0,    9.1,    8.7,    7.5,  999.0,    4.8,    4.4,    4.4,    4.5,    5.7,    6.0,    5.2,    4.4,    3.2,    2.7,    3.3,    4.2,    4.5,    5.1,    4.9,    5.1,    5.5,    5.8,    5.8,    5.9,    5.9,    6.4,    6.2,  999.0,    6.6,  999.0,  999.0,  999.0
2000/05/27 21:10,    9.1,    9.6,    7.9,    5.5,    4.6,    6.9,    8.6,    9.9,    9.9,    9.1,    8.8,    8.4,    8.7,    8.5,    7.2,    5.5,    5.5,    4.6,    4.9,    6.0,    6.1,    6.7,    6.5,    5.9,    5.4,    4.7,    3.5,    2.8,    3.7,    5.0,    5.8,    5.8,    5.9,    6.1,    6.5,    6.4,    6.6,    7.4,    7.3,    7.2,    7.1,    6.6,    6.8,  999.0,  999.0,  999.0
2000/05/27 21:20,    9.1,   10.5,    7.7,    6.0,    5.7,    7.6,    8.6,    9.8,    8.9,    8.7,    7.7,    6.4,    5.8,    4.7,    3.9,    4.4,    4.7,    6.3,  999.0,    7.8,    8.6,    8.7,    8.6,    8.6,    8.2,    7.2,    7.4,    7.4,    7.9,    7.4,    7.6,    7.7,    7.7,    7.4,    6.3,    5.9,    5.7,    6.1,    7.2,    7.2,    7.0,    7.0,    7.1,  999.0,    8.0,    8.2
2000/05/27 21:30,    8.9,   11.1,    7.5,    8.0,    8.2,    8.9,   10.6,   11.2,   11.2,   12.5,   10.7,   10.5,    9.4,    8.3,    6.6,    4.9,    3.9,    5.9,   10.0,    8.8,    8.8,   10.0,    9.8,    9.6,   10.6,    7.9,    8.3,    7.0,    6.9,    6.6,    6.4,    7.4,    7.7,    6.8,    6.6,    6.9,    6.6,  999.0,    5.5,  999.0,  999.0,  999.0,  999.0,  999.0,  999.0,    8.9
2000/05/27 21:40,    7.8,   10.3,    7.6,    7.7,    7.0,    8.4,    9.2,    9.6,    8.6,    7.8,    8.3,    8.9,    9.6,    9.0,    8.2,    8.7,    7.9,    7.4,    8.4,   10.7,   11.6,    9.7,   11.5,    9.8,  999.0,    8.7,    8.8,    7.0,    5.8,    6.1,    6.2,    7.0,    7.4,    7.4,    7.8,    7.4,    7.3,    7.3,    7.3,    7.0,  999.0,  999.0,  999.0,  999.0,  999.0,  999.0
2000/05/27 21:50,    7.6,   11.4,    9.4,    8.5,    8.0,    8.0,    7.5,    6.8,    6.2,    4.9,    6.3,    6.2,    6.3,    8.1,    7.4,    2.8,    5.2,    5.1,    5.4,    5.6,    6.0,    5.9,    6.1,    5.8,    5.7,    5.4,    5.7,    6.1,    5.4,    4.6,    4.4,    4.2,    3.9,    3.8,    3.9,    4.3,    4.7,    4.9,    4.7,  999.0,  999.0,  999.0,  999.0,  999.0,  999.0,  999.0
2000/05/27 22:00,    7.5,   11.5,   10.6,    9.3,    9.0,    9.9,    9.7,    9.4,    7.3,    6.8,    7.5,    6.8,    6.2,    5.5,    5.2,    5.1,    5.3,    4.8,    6.5,    5.2,    5.9,    4.9,    4.9,    4.9,    4.4,    4.9,    4.0,    3.7,    2.4,    4.3,    4.1,    5.0,    4.3,  999.0,    5.4,    4.2,  999.0,  999.0,  999.0,  999.0,  999.0,  999.0,  999.0,  999.0,  999.0,  999.0
2000/05/27 22:10,    7.1,   10.8,   10.4,    9.4,   11.1,   10.5,   10.5,    9.6,    7.9,    4.7,    4.2,    4.1,    3.9,    4.9,    5.9,    5.4,    8.4,    6.3,    6.4,    7.4,    7.7,    6.2,    5.1,    4.5,    5.0,    4.3,    3.4,    2.7,    2.9,    3.0,    2.3,    4.2,    4.3,    4.8,    4.2,    5.6,    5.8,  999.0,  999.0,  999.0,  999.0,  999.0,  999.0,  999.0,  999.0,  999.0
2000/05/27 22:20,    9.3,   11.1,   10.1,   12.8,   14.3,   12.5,   11.9,   10.6,    9.1,    7.6,    8.3,    8.1,    7.0,    6.0,    5.8,    6.0,    6.4,    6.5,    6.6,    6.4,    5.9,    6.5,    6.1,    5.6,    5.3,    4.8,    4.2,    4.1,    4.0,    4.0,    4.8,    4.7,    5.1,    5.0,    4.9,    5.4,  999.0,  999.0,  999.0,  999.0,  999.0,  999.0,  999.0,  999.0,  999.0,  999.0
2000/05/27 22:30,  999.0,   11.4,   10.4,   14.4,   13.9,   12.3,   11.6,   11.8,   10.4,   10.5,    9.5,    7.9,    7.6,    2.5,  999.0,    3.1,    1.7,    3.1,  999.0,    4.1,    5.3,    5.0,    5.3,    5.8,    6.9,    8.9,    7.8,   16.2,  999.0,    7.5,   14.5,    5.4,   13.8,   13.5,  999.0,  999.0,  999.0,  999.0,  999.0,  999.0,  999.0,  999.0,  999.0,  999.0,  999.0,  999.0
2000/05/27 22:40,  999.0,   12.7,   12.6,   15.4,   12.7,   10.7,    9.6,    8.5,    6.5,    6.2,    5.7,    4.5,    4.3,   -1.7,  999.0,   -3.0,   -2.5,   -1.5,    2.8,    3.8,    3.3,    2.3,    2.2,    1.8,  999.0,  999.0,  999.0,  999.0,  999.0,  999.0,  999.0,  999.0,  999.0,  999.0,  999.0,  999.0,  999.0,  999.0,  999.0,  999.0,  999.0,  999.0,  999.0,  999.0,  999.0,  999.0
2000/05/27 22:50,    8.2,   11.8,   14.0,   14.1,   10.5,    9.2,    8.5,    7.8,    6.2,    6.3,    5.7,    6.6,    7.0,    5.2,    3.8,    2.0,    1.5,    2.2,    4.8,    3.4,    3.6,    3.6,    1.8,    2.3,  999.0,    2.3,  999.0,  999.0,  999.0,  999.0,  999.0,  999.0,  999.0,  999.0,  999.0,   -0.1,  999.0,  999.0,  999.0,  999.0,  999.0,  999.0,  999.0,  999.0,  999.0,  999.0
2000/05/27 23:00,    8.9,   11.2,   12.9,   14.6,   10.8,    9.9,   10.0,    8.5,    9.2,    9.2,    8.3,    5.5,    7.7,    8.0,    8.0,    7.0,    7.6,    5.4,  999.0,    6.3,    5.6,  999.0,  999.0,  999.0,  999.0,  999.0,  999.0,  999.0,  999.0,  999.0,  999.0,  999.0,  999.0,  999.0,  999.0,    0.0,   -0.9,   -0.5,    0.1,   -0.5,   -1.6,   -0.3,  999.0,  999.0,   -0.3,    0.1
2000/05/27 23:10,    8.9,   11.3,   13.6,   14.3,   12.4,    9.9,    9.0,    9.0,    6.6,    5.9,    3.7,    4.3,    2.1,    2.2,    1.3,    2.8,    4.1,    3.9,   15.3,  999.0,  999.0,  999.0,  999.0,   11.0,   -0.3,    0.2,   -0.3,   -0.8,    0.3,   -0.1,    0.1,  999.0,    0.4,   -0.0,    0.7,  999.0,  999.0,    0.6,    0.4,  999.0,  999.0,  999.0,   -0.2,   -0.1,   -0.5,    0.9
2000/05/27 23:20,    8.8,   10.9,   14.7,   13.8,   12.5,   10.8,    7.2,    7.1,    6.0,    4.5,    2.5,    2.0,    1.4,    1.8,    0.9,  999.0,  999.0,  999.0,  999.0,  999.0,    3.5,  999.0,    3.5,  999.0,   -0.5,  999.0,  999.0,   -0.7,  999.0,  999.0,  999.0,  999.0,    0.1,   -0.3,  999.0,  999.0,  999.0,  999.0,  999.0,    0.2,  999.0,  999.0,  999.0,  999.0,  999.0,  999.0
2000/05/27 23:30,    2.6,   11.9,   13.9,   13.2,   13.4,   10.0,    7.8,    4.3,    2.9,    2.9,    1.9,    1.5,    0.1,   -0.5,    0.9,    1.0,  999.0,  999.0,  999.0,    8.1,  999.0,  999.0,  999.0,    0.8,   -0.4,   -1.0,  999.0,    0.2,  999.0,   -0.2,    0.7,    0.0,   -0.7,    0.4,   -0.4,    0.0,   -0.1,  999.0,   -1.0,    0.0,  999.0,  999.0,   -0.5,  999.0,  999.0,   -0.8
2000/05/27 23:40,    9.6,   13.1,   12.8,   13.3,   10.2,   10.1,    9.6,    7.4,    4.9,    3.3,    2.0,    1.9,    1.4,    0.7,   -0.7,   -1.8,   -1.2,   -1.6,   -0.5,    0.4,    1.9,    1.8,    2.9,    5.0,   12.2,  999.0,  999.0,   11.1,  999.0,  999.0,    6.0,    8.4,  999.0,  999.0,   -0.8,    0.0,    0.3,   -0.3,    0.3,  999.0,  999.0,  999.0,  999.0,    0.6,   -0.4,   -0.5
2000/05/27 23:50,    7.0,   10.9,   16.8,   14.7,   12.1,  999.0,  999.0,    6.7,    4.7,    4.1,    3.0,    4.2,    0.6,   -0.4,   -1.2,   -0.8,  999.0,  999.0,  999.0,  999.0,  999.0,  999.0,    4.2,  999.0,  999.0,  999.0,  999.0,  999.0,  999.0,    0.2,  999.0,  999.0,   -0.2,  999.0,  999.0,   -0.5,  999.0,  999.0,  999.0,    0.8,  999.0,  999.0,   -0.2,  999.0,  999.0,  999.0
